{"data":{"norad_id":67624,"intl_designator":"2026-020H","name":"STARLINK-36439","alt_names":[],"object_type":"PAYLOAD","status":"ACTIVE","operator":null,"country":"US","launch_date":"2026-01-30","launch_site_code":"AFETR","launch_vehicle":null,"mission":null,"orbit_class":"UNKNOWN","rcs_meters":null,"size_class":null,"mass_kg":null,"dimensions":null,"purposes":["comms"],"wikipedia_slug":null,"has_3d_model":false,"image_url":null,"decayed_at":null,"tle_current":{"epoch":"2026-05-25T04:30:32.861376Z","epoch_age_seconds":55504,"freshness":"FRESH","line1":"1 67624U 26020H   26145.18788034  .00016987  00000+0  62516-3 0  9995","line2":"2 67624  43.0027  67.7087 0001192 267.5098  92.5617 15.27593142 17814","mean_motion":15.27593142,"eccentricity":0.0001192,"inclination_deg":43.0027,"raan_deg":67.7087,"arg_perigee_deg":267.5098,"mean_anomaly_deg":92.5617,"bstar":0.00062516,"rev_number":1781,"period_min":94.265937729642,"perigee_km":482.19189575403,"apogee_km":483.8275931379,"semimajor_km":6861.146744446,"source":"CELESTRAK","updated_at":"2026-05-25T13:38:21.650556Z"}}}